Location: Mentone
(34.5413°N, 85.5351°W)
Time: 17:11:17
(UTC-05:00)

ATLAS 5 CENTAUR R/B - Visible Passes

Search period start: 22 March 2017 00:00
Search period end: 01 April 2017 00:00
Orbit: 639 x 1021 km, 63.4° (Epoch: 21 March)

Date Brightness Start Highest point End Pass type
(mag) Time Alt. Az. Time Alt. Az. Time Alt. Az.
22 Mar 5.1 04:58:21 10° NNE 05:01:11 13° NE 05:04:05 10° ENE visible
23 Mar 5.1 04:39:38 10° NNE 04:42:10 13° NE 04:44:46 10° ENE visible
24 Mar 5.2 04:20:58 10° NNE 04:23:09 12° NE 04:25:24 10° ENE visible
24 Mar 3.1 06:02:52 10° NNW 06:08:57 62° ENE 06:15:27 10° SE visible
24 Mar 2.1 20:49:56 10° SSW 20:53:21 50° S 20:53:21 50° S visible
25 Mar 5.3 04:02:22 10° NNE 04:04:08 11° NE 04:05:56 10° NE visible
25 Mar 3.2 05:43:57 10° NNW 05:49:59 58° ENE 05:56:27 10° SE visible
25 Mar 1.6 20:31:01 10° SSW 20:35:35 69° ESE 20:40:30 10° NE visible
25 Mar 4.6 22:18:09 10° WNW 22:20:51 15° NW 22:23:38 10° N visible
26 Mar 5.3 03:43:56 10° NNE 03:45:07 11° NE 03:46:20 10° NE visible
26 Mar 3.2 05:25:03 10° NNW 05:31:02 55° NE 05:37:27 10° SE visible
26 Mar 1.6 20:12:08 10° SSW 20:16:39 63° ESE 20:21:31 10° NE visible
26 Mar 4.6 21:58:58 10° W 22:01:51 16° NW 22:04:50 10° N visible
27 Mar 3.3 05:06:07 10° NNW 05:12:05 52° NE 05:18:27 10° SE visible
27 Mar 1.7 19:53:13 10° SSW 19:57:44 58° ESE 20:02:33 10° NE visible
27 Mar 4.5 21:39:49 10° W 21:42:51 17° NW 21:46:02 10° N visible
28 Mar 3.4 04:47:13 10° NNW 04:53:07 49° NE 04:59:26 10° SE visible
28 Mar 1.8 19:34:21 10° SSW 19:38:48 53° ESE 19:43:35 10° NE visible
28 Mar 4.5 21:20:40 10° W 21:23:51 18° NW 21:27:13 10° N visible
29 Mar 3.5 04:28:18 10° NNW 04:34:09 46° NE 04:40:25 10° SE visible
29 Mar 4.5 21:01:31 10° W 21:04:52 19° NW 21:08:23 10° N visible
30 Mar 3.5 04:09:24 10° NNW 04:15:12 43° NE 04:21:23 10° SE visible
30 Mar 3.2 05:54:24 10° NW 05:59:49 31° WSW 06:05:29 10° S visible
30 Mar 4.4 20:42:24 10° W 20:45:52 20° NW 20:49:33 10° N visible
31 Mar 3.6 03:50:30 10° NNW 03:56:13 41° NE 04:02:20 10° ESE visible
31 Mar 3.1 05:35:23 10° NW 05:40:53 33° WSW 05:46:40 10° S visible
31 Mar 4.4 20:23:18 10° W 20:26:53 21° NW 20:30:41 10° N visible
